EW3511 Weather Reports


time (UTC)temp
C
wind
direction
speed
KPH
gust
KPH
rain 1hr
cm
rain 24hr
cm
rain mn
cm
humidity
%
barometer
mb
20260509101546 17 76 3.2 12.9 0.00 0.00 0.00 70 1016.8
20260509100546 16 86 4.8 9.7 0.00 0.00 0.00 72 1016.9
20260509095607 16 68 3.2 11.3 0.00 0.00 0.00 75 1016.9
20260509094607 15 69 4.8 9.7 0.00 0.00 0.00 78 1017.0
20260509093548 14 86 3.2 8.0 0.00 0.00 0.00 79 1017.0
20260509092608 14 58 3.2 4.8 0.00 0.00 0.00 81 1017.1
20260509091548 14 72 1.6 4.8 0.00 0.00 0.00 81 1017.1
20260509090550 13 57 1.6 3.2 0.00 0.00 0.00 81 1017.1
20260509085549 13 59 1.6 3.2 0.00 0.00 0.00 82 1017.2
20260509084551 13 68 1.6 3.2 0.00 0.00 0.00 83 1017.2
20260509083550 12 104 1.6 3.2 0.00 0.00 0.00 86 1017.2
20260509082551 12 86 1.6 3.2 0.00 0.00 0.00 87 1017.1
20260509081551 12 117 1.6 4.8 0.00 0.00 0.00 87 1017.1
20260509080551 11 76 1.6 8.0 0.00 0.00 0.00 88 1017.0
20260509075554 11 115 3.2 8.0 0.00 0.00 0.00 86 1016.9
20260509074552 11 97 3.2 4.8 0.00 0.00 0.00 86 1017.0
20260509073618 11 80 1.6 8.0 0.00 0.00 0.00 86 1017.1
20260509072553 11 115 3.2 8.0 0.00 0.00 0.00 86 1017.1
20260509071553 11 94 1.6 3.2 0.00 0.00 0.00 86 1017.2
20260509070614 11 101 1.6 4.8 0.00 0.00 0.00 85 1017.1
20260509065554 12 78 1.6 3.2 0.00 0.00 0.00 84 1017.0
20260509064615 12 65 0.0 1.6 0.00 0.00 0.00 82 1017.0
20260509063555 11 69 0.0 1.6 0.00 0.00 0.00 82 1017.1
20260509062556 11 53 1.6 3.2 0.00 0.00 0.00 83 1017.2
20260509061556 11 44 1.6 3.2 0.00 0.00 0.00 83 1017.3
20260509060557 11 70 0.0 1.6 0.00 0.00 0.00 82 1017.2
20260509055618 11 63 0.0 1.6 0.00 0.00 0.00 81 1017.1
20260509054557 12 55 0.0 1.6 0.00 0.00 0.00 80 1017.1
20260509053557 12 109 0.0 1.6 0.00 0.00 0.00 81 1017.2
20260509052558 11 133 0.0 1.6 0.00 0.00 0.00 82 1017.0
20260509051600 9 86 0.0 1.6 0.00 0.00 0.00 92 1016.7
20260509050559 8 108 0.0 1.6 0.00 0.00 0.00 94 1016.6
20260509045600 8 150 1.6 3.2 0.00 0.00 0.00 94 1016.7
20260509044600 7 0.0 0.0 0.00 0.00 0.00 96 1016.4
20260509043620 7 0.0 0.0 0.00 0.00 0.00 96 1016.1
20260509042533 7 0.0 0.0 0.00 0.00 0.00 96 1016.1
20260509041536 7 98 0.0 1.6 0.00 0.00 0.00 95 1016.1
20260509040533 8 99 0.0 1.6 0.00 0.00 0.00 94 1016.0
20260509035534 8 0.0 0.0 0.00 0.00 0.00 95 1016.1
20260509034534 7 0.0 0.0 0.00 0.00 0.00 94 1016.0
20260509033535 8 0.0 0.0 0.00 0.00 0.00 95 1015.9
20260509032537 7 75 0.0 1.6 0.00 0.00 0.00 96 1016.0
20260509031535 7 0.0 0.0 0.00 0.00 0.00 96 1015.8
20260509030537 7 0.0 0.0 0.00 0.00 0.00 97 1015.8
20260509025536 7 0.0 0.0 0.00 0.00 0.00 98 1015.8
20260509024537 7 74 0.0 1.6 0.00 0.00 0.00 99 1015.8
20260509023537 6 64 0.0 1.6 0.00 0.00 0.00 99 1015.6
20260509022537 6 67 0.0 1.6 0.00 0.00 0.00 98 1015.5
20260509021538 6 0.0 0.0 0.00 0.00 0.00 98 1015.4
20260509020538 7 0.0 0.0 0.00 0.00 0.00 97 1015.4
20260509015540 7 65 0.0 1.6 0.00 0.00 0.00 97 1015.6
20260509014539 7 0.0 1.6 0.00 0.00 0.00 97 1015.5
20260509013541 7 0.0 0.0 0.00 0.00 0.00 96 1015.4
20260509012600 7 49 0.0 1.6 0.00 0.00 0.00 95 1015.4
20260509011541 7 0.0 0.0 0.00 0.00 0.00 95 1015.5
20260509010601 7 0.0 0.0 0.00 0.00 0.00 95 1015.5
20260509005541 7 0.0 0.0 0.00 0.00 0.00 95 1015.8
20260509004542 7 0.0 0.0 0.00 0.00 0.00 94 1015.6
20260509003542 8 0.0 0.0 0.00 0.00 0.00 94 1015.6
20260509002542 8 0.0 0.0 0.00 0.00 0.00 93 1015.8
20260509001543 8 0.0 0.0 0.00 0.00 0.00 94 1015.7
20260509000603 8 0.0 0.0 0.00 0.00 0.00 93 1015.8
20260508235544 8 0.0 0.0 0.00 0.00 0.00 94 1015.8
20260508234544 8 0.0 0.0 0.00 0.00 0.00 94 1015.9
20260508233545 8 0.0 0.0 0.00 0.00 0.00 94 1015.9
20260508232546 8 0.0 0.0 0.00 0.00 0.00 93 1015.9
20260508231546 8 0.0 0.0 0.00 0.00 0.00 93 1015.8
20260508230546 8 0.0 0.0 0.00 0.00 0.00 91 1015.9
20260508225547 8 0.0 0.0 0.00 0.00 0.00 91 1016.0
20260508224547 8 0.0 0.0 0.00 0.00 0.00 90 1016.1
20260508223549 9 0.0 0.0 0.00 0.00 0.00 89 1016.1
20260508222548 9 0.0 0.0 0.00 0.00 0.00 88 1016.0
20260508221548 10 0.0 1.6 0.00 0.00 0.00 86 1016.0
20260508220549 10 0.0 0.0 0.00 0.00 0.00 83 1016.1
20260508215550 11 52 0.0 1.6 0.00 0.00 0.00 79 1015.9
20260508214550 11 65 0.0 1.6 0.00 0.00 0.00 79 1015.8
20260508213550 11 0.0 0.0 0.00 0.00 0.00 80 1015.9
20260508212610 11 48 0.0 1.6 0.00 0.00 0.00 79 1015.9
20260508211611 11 0.0 1.6 0.00 0.00 0.00 80 1015.9
20260508210611 12 49 0.0 1.6 0.00 0.00 0.00 78 1015.8
20260508205551 12 62 0.0 3.2 0.00 0.00 0.00 77 1015.8
20260508204551 12 65 0.0 1.6 0.00 0.00 0.00 77 1015.7
20260508203553 12 61 0.0 1.6 0.00 0.00 0.00 76 1015.7
20260508202612 13 61 1.6 4.8 0.00 0.00 0.00 75 1015.7
20260508201554 13 69 1.6 3.2 0.00 0.00 0.00 74 1015.6
20260508200553 13 68 1.6 3.2 0.00 0.00 0.00 73 1015.6
20260508195555 13 59 1.6 4.8 0.00 0.00 0.00 73 1015.4
20260508194554 13 68 1.6 3.2 0.00 0.00 0.00 72 1015.4
20260508193635 13 54 1.6 3.2 0.00 0.00 0.00 72 1015.2
20260508192555 13 60 1.6 4.8 0.00 0.00 0.00 73 1015.2
20260508191555 14 64 0.0 3.2 0.00 0.00 0.00 73 1014.9
20260508190557 14 65 0.0 1.6 0.00 0.00 0.00 72 1014.7
20260508185557 14 61 1.6 3.2 0.00 0.00 0.00 71 1014.6
20260508184609 15 62 1.6 3.2 0.00 0.00 0.00 70 1014.6
20260508183559 15 63 1.6 1.6 0.00 0.00 0.00 70 1014.4
20260508182558 15 56 1.6 3.2 0.00 0.00 0.00 68 1014.4
20260508181609 16 51 1.6 4.8 0.00 0.00 0.00 66 1014.2
20260508180559 16 46 3.2 4.8 0.00 0.00 0.00 66 1014.2
20260508175559 16 48 1.6 4.8 0.00 0.00 0.00 65 1014.1
20260508174559 16 58 1.6 4.8 0.00 0.00 0.00 64 1014.1
20260508173559 17 49 1.6 8.0 0.00 0.00 0.00 63 1014.0
20260508172600 17 47 3.2 4.8 0.00 0.00 0.00 60 1013.9
20260508171601 18 37 3.2 9.7 0.00 0.00 0.00 59 1013.9
20260508170602 18 44 3.2 8.0 0.00 0.00 0.00 59 1013.8
20260508165601 18 42 3.2 9.7 0.00 0.00 0.00 59 1013.9
20260508164602 18 38 3.2 9.7 0.00 0.00 0.00 59 1013.8
20260508163622 18 50 1.6 4.8 0.00 0.00 0.00 58 1013.7
20260508162603 18 34 3.2 8.0 0.00 0.00 0.00 58 1013.8
20260508161624 18 48 3.2 9.7 0.00 0.00 0.00 59 1013.8
20260508160603 19 61 1.6 8.0 0.00 0.00 0.00 56 1013.7
20260508155625 19 55 3.2 8.0 0.00 0.00 0.00 56 1013.7
20260508154645 18 54 1.6 4.8 0.00 0.00 0.00 56 1013.7
20260508153533 19 57 4.8 9.7 0.00 0.00 0.00 56 1013.8
20260508152533 19 58 3.2 9.7 0.00 0.00 0.00 56 1013.8
20260508151534 19 15 3.2 8.0 0.00 0.00 0.00 57 1013.9
20260508150534 20 54 3.2 9.7 0.00 0.00 0.00 56 1014.0
20260508145534 20 21 1.6 4.8 0.00 0.00 0.00 53 1014.1
20260508144535 19 46 3.2 8.0 0.00 0.00 0.00 57 1014.2
20260508143555 18 51 3.2 9.7 0.00 0.00 0.00 60 1014.2
20260508142536 18 49 3.2 9.7 0.00 0.00 0.00 60 1014.3
20260508141536 19 52 3.2 11.3 0.00 0.00 0.00 58 1014.1
20260508140536 18 48 3.2 11.3 0.00 0.00 0.00 58 1014.1
20260508135537 18 76 1.6 8.0 0.00 0.00 0.00 59 1014.3
20260508134558 18 72 1.6 4.8 0.00 0.00 0.00 62 1014.5
20260508133618 18 103 3.2 9.7 0.00 0.00 0.00 60 1014.5
20260508132538 19 155 3.2 11.3 0.00 0.00 0.00 59 1014.5
20260508131538 18 137 1.6 8.0 0.00 0.00 0.00 62 1014.7
20260508130539 17 116 1.6 4.8 0.00 0.00 0.00 64 1014.7
20260508125540 17 73 1.6 9.7 0.00 0.00 0.00 66 1014.8
20260508124549 17 60 1.6 3.2 0.00 0.00 0.00 66 1015.0
20260508123540 17 69 1.6 9.7 0.00 0.00 0.00 67 1014.9
20260508122542 16 47 1.6 4.8 0.00 0.00 0.00 69 1014.9
20260508121541 16 58 3.2 11.3 0.00 0.00 0.00 71 1014.8
20260508120541 16 22 1.6 4.8 0.00 0.00 0.00 73 1015.0
20260508115542 16 59 3.2 8.0 0.00 0.00 0.00 72 1015.1
20260508114543 16 74 1.6 4.8 0.00 0.00 0.00 74 1015.1
20260508113623 16 118 1.6 4.8 0.00 0.00 0.00 76 1015.2
20260508112543 16 182 3.2 8.0 0.00 0.00 0.00 75 1015.3
20260508111544 16 162 1.6 8.0 0.00 0.00 0.00 75 1015.4
20260508110545 15 45 1.6 3.2 0.00 0.00 0.00 76 1015.5
20260508105544 15 80 1.6 4.8 0.00 0.00 0.00 76 1015.6
20260508104545 15 147 1.6 4.8 0.00 0.00 0.00 78 1015.8
20260508103545 13 69 1.6 8.0 0.00 0.00 0.00 81 1015.9
20260508102546 13 83 1.6 4.8 0.00 0.00 0.00 83 1015.8